CZ-2C R/B (28480 NORAD) Tracking and Keplerian Element Data

This shows tracking and keplerian element data for the satellite.

Feedback or suggestion? Click here.




ElementValue
Catalog28480
NameCZ-2C R/B
Epoch Orbit99630
Epoch Day12.86005566
Epoch Year2024
RAAN327.7455
Inclination98.1432
Eccentricity0.0140319
Argument of Perigee322.1413
Mean Anonmoly36.9963
Mean Motion14.2621191
Decay Rate6.09E-06
L11 28480U 04046B 24012.86005566 .00000609 00000+0 24487-3 0 9993
L22 28480 98.1432 327.7455 0140319 322.1413 36.9963 14.26211910996308



Live tracking and technical data element details for CZ-2C R/B (NORAD 28480). CZ-2C R/B can be tracked NOW for your location showing map with azimuth and elevation plus other details from your city location.







IsCatalogInMostPopularTable: catalog: 28480, numindb: 543
Update: records affected: 1



GetName: 28480 CZ-2C R/B

Hit Count: updated at: Mon, 15 Apr 2024 00:39:23 GMT